Voltar ao catálogo

PICOSAT 5

AtivoCiênciaLEO
NORAD 26093·PAYLOAD·🇺🇸 United States

Lançado Jan 27, 2000 de Vandenberg Space Force Base

Loading…

Próximas Passagens (próximas 24 horas)

TLE

AtualizadoSource: Space-Track

Época: Sep 14, 2026, 06:09 UTC

1 26093U 00004L   26257.25686253  .00001680  00000-0  32142-3 0  9993
2 26093 100.2027  66.0056 0022717 315.4247  44.5122 14.65578725405492

Acompanhe PICOSAT 5 em tempo real com AllMySat

Download on the App Store